Temp
89 88 91 91 94 72 82 84 75 80 91 86 76 77 82 81 76 70 82 78 83 92 92 95 95 96 98 99 100 101 100 101 101 100 96 99 101 102 102 100 99 96 98 96 97 96 97 96 95 95 93 93 92 91 90 89 88 89 88 88 89 89 89
91 94 92 93 94 94 87 76 82 91 94 90 78 68 72 70 66 70 80 76 77 77 72 91 91 91 95 97 98 101 100 100 100 101 100 97 100 103 103 101 99 98 98 97 98 98 98 97 96 95 93 94 93 93 92 90 89 88 89 89 90 90 89
90 94 91 88 93 95 88 84 95 81 71 69 77 73 63 64 62 67 75 79 80 80 77 88 87 89 91 94 96 98 98 99 99 101 102 100 101 102 102 102 100 99 98 98 96 99 100 98 95 96 96 96 96 95 94 94 91 92 92 93 92 90 90
89 89 86 73 81 91 94 96 88 93 85 77 71 73 74 73 66 66 69 76 73 84 86 90 89 91 91 94 95 96 100 100 101 101 103 102 101 101 103 103 102 100 100 101 100 100 100 99 98 98 99 98 98 97 94 94 95 93 92 92 91 90 92
87 75 81 78 81 78 80 82 82 84 83 89 85 83 76 72 68 69 69 68 75 86 95 94 92 92 93 95 94 95 98 101 103 103 103 101 101 102 103 102 101 102 100 102 102 101 102 102 100 100 100 99 99 99 97 97 93 94 94 94 93 91 92
76 79 87 88 88 87 83 82 80 83 78 75 69 67 84 79 73 64 69 68 81 91 99 96 96 96 96 97 97 96 99 102 101 102 103 101 100 100 102 103 103 103 102 102 103 102 102 102 101 100 100 100 100 99 99 98 98 97 97 95 92 91 92
79 84 90 93 94 93 89 87 83 88 85 83 75 62 70 78 79 82 79 72 76 90 95 95 96 98 99 99 100 99 100 101 104 103 106 104 102 102 104 104 107 105 103 102 102 100 99 100 99 100 100 100 100 100 100 99 99 98 99 98 96 92 92
86 90 92 92 93 92 87 88 89 87 82 84 81 78 80 75 77 73 75 68 78 90 94 96 97 96 100 99 100 98 101 103 103 103 104 102 101 102 105 105 105 101 102 102 99 98 97 97 98 99 100 100 101 101 101 101 100 100 100 100 98 94 93
74 79 84 85 89 90 85 83 86 88 89 88 88 86 85 74 77 78 72 64 77 87 93 94 95 97 98 99 101 101 100 100 104 104 104 102 99 99 101 102 103 104 104 99 97 97 94 95 100 99 99 100 101 100 102 102 102 102 101 100 100 97 96
59 59 61 65 71 77 85 87 86 87 86 85 81 74 76 67 75 77 74 74 83 86 89 90 93 96 95 99 100 103 103 100 102 102 100 97 98 96 98 99 101 101 98 97 95 95 95 98 100 97 97 100 102 102 102 103 103 102 102 103 101 98 97
70 71 73 84 84 82 77 82 84 85 87 89 85 81 75 70 74 74 77 80 77 82 87 89 93 94 93 95 98 98 98 100 97 95 96 98 95 95 98 97 98 98 97 96 95 95 98 101 100 100 101 101 102 100 100 104 104 103 101 101 99 99 98
74 72 75 80 84 80 81 82 82 85 84 85 83 77 74 79 76 68 77 80 79 82 86 88 89 93 94 96 96 98 98 98 99 97 95 95 98 97 97 96 95 94 94 95 95 95 97 100 100 101 102 102 101 100 101 102 105 104 103 101 99 98 97
78 77 75 79 81 83 83 83 84 82 84 84 80 79 83 81 75 72 78 79 78 83 88 90 92 92 92 96 96 99 100 99 98 97 98 100 100 98 98 95 94 94 94 93 94 95 96 99 99 100 101 101 100 100 101 101 105 105 102 100 99 99 96
75 75 76 78 77 81 80 81 85 86 85 84 84 84 86 84 78 82 83 79 82 88 90 93 93 94 96 96 98 97 96 98 98 99 97 101 102 101 99 97 97 94 94 93 93 94 93 96 96 99 99 98 100 101 101 103 101 104 103 100 97 98 97
70 76 77 76 77 76 76 81 84 85 86 86 85 85 86 85 84 85 84 79 79 90 93 94 96 95 96 95 95 97 96 97 98 97 98 99 100 102 101 98 99 97 96 95 94 93 93 94 96 97 97 98 100 103 103 104 101 103 105 99 99 98 96
64 72 72 74 75 75 75 77 79 82 84 80 83 81 86 83 78 81 82 77 78 87 92 94 93 91 90 90 91 92 93 97 96 95 97 97 98 100 100 101 102 100 99 97 95 95 96 97 96 97 96 99 100 101 103 103 104 105 104 102 100 95 96
61 71 74 73 74 72 67 69 76 79 81 85 88 88 88 87 88 81 76 78 86 88 90 89 89 91 90 91 92 92 93 93 95 95 95 97 98 99 99 99 99 103 105 102 98 100 102 100 99 100 99 100 98 99 99 102 103 104 103 103 97 95 96
61 70 73 74 66 56 59 78 84 83 80 80 78 80 83 85 86 83 86 86 87 87 88 87 87 89 90 91 92 95 93 92 93 96 97 99 100 101 102 102 102 101 101 102 102 104 102 103 106 103 101 101 100 102 102 102 102 100 99 100 99 97 95
62 68 69 61 54 58 75 82 85 85 85 84 82 83 85 86 87 87 85 87 87 88 90 90 90 91 93 94 95 96 99 97 96 95 97 96 96 97 98 99 102 99 97 97 98 98 103 106 104 104 103 103 102 102 101 101 100 97 98 98 98 97 94
65 63 60 50 54 70 79 81 83 86 86 85 82 80 84 86 87 86 85 86 88 88 89 90 91 90 92 94 94 95 97 98 97 98 98 99 100 100 101 99 95 94 97 97 99 98 99 102 105 106 105 106 105 104 104 102 101 100 98 96 97 97 94
55 60 61 60 67 68 72 74 75 78 74 78 77 70 76 85 88 88 86 87 89 90 91 92 93 93 93 88 89 97 98 98 101 101 101 103 102 102 100 100 98 95 94 95 96 96 97 100 102 105 107 108 106 105 103 103 100 101 99 95 95 95 94
63 58 58 59 60 55 64 73 80 83 85 86 85 78 75 84 87 89 86 83 83 84 87 88 88 88 83 80 85 94 100 102 99 98 103 106 103 101 98 96 96 96 96 96 96 96 97 97 100 102 105 106 104 101 101 102 101 100 99 96 95 94 94
61 58 55 56 54 61 72 73 79 82 82 83 81 74 68 81 85 84 85 85 84 85 85 85 84 81 77 80 86 90 93 94 96 94 93 96 96 95 95 95 95 95 91 90 92 94 95 96 99 100 101 103 105 100 99 103 102 99 97 95 95 94 95
58 58 55 55 63 61 69 75 78 82 84 82 77 60 65 77 82 83 83 83 83 82 80 81 81 79 77 81 86 91 93 93 94 90 89 90 91 93 95 97 92 89 89 90 91 94 97 96 98 98 101 100 98 99 100 103 102 99 97 96 96 97 96
55 53 57 62 65 71 73 75 79 79 84 78 63 56 65 75 79 80 80 82 81 80 79 81 79 83 86 86 87 92 91 91 89 90 91 91 92 91 92 91 86 91 93 93 92 95 94 90 95 98 100 99 96 97 97 97 98 101 99 98 96 95 95
55 57 55 57 65 73 79 76 78 79 72 59 59 63 73 76 77 80 81 80 80 80 79 79 81 83 86 87 89 88 89 87 87 87 90 89 90 92 90 87 87 90 93 90 91 95 93 95 96 97 95 94 94 94 95 95 97 102 100 96 96 95 94
60 58 54 52 46 62 76 73 74 74 62 60 67 71 76 80 79 79 79 80 79 80 77 80 80 82 84 84 84 85 85 85 85 86 86 85 85 86 86 88 89 89 90 89 91 90 93 93 93 94 97 93 93 93 93 94 98 99 99 98 95 95 93
52 53 50 51 64 65 73 73 61 63 67 70 70 72 74 79 81 75 77 78 78 79 77 77 78 79 79 80 82 82 82 83 85 85 85 85 85 87 90 90 87 89 88 88 89 88 89 88 89 90 92 91 91 91 92 95 96 97 97 96 94 93 92
51 54 62 62 65 69 73 73 71 72 74 75 74 72 71 71 72 76 76 76 78 78 76 75 76 77 80 80 82 81 81 82 83 82 82 83 84 86 86 87 85 86 88 85 86 86 87 86 87 87 91 91 90 90 89 91 93 94 95 95 93 92 92
62 64 62 65 67 69 72 75 74 73 75 77 76 71 68 71 73 74 74 76 76 76 76 74 75 76 77 77 79 80 80 81 82 81 82 82 84 86 87 85 84 85 87 85 84 83 85 86 86 86 89 90 87 87 89 90 91 92 93 92 91 91 91
54 48 65 64 65 67 68 69 71 73 77 75 75 73 70 71 72 74 76 75 74 76 74 73 72 72 73 72 73 74 76 78 79 80 80 80 80 81 80 80 80 82 84 83 81 81 82 85 87 88 87 88 88 87 88 91 91 90 91 90 89 90 91
52 54 62 67 69 67 68 69 70 70 73 73 73 72 73 72 73 75 75 75 75 75 74 73 71 72 73 70 71 73 74 74 75 77 78 78 79 80 80 80 80 80 80 79 79 80 80 81 82 84 85 87 87 88 90 91 92 89 88 89 90 90 91
60 63 64 65 66 66 67 69 71 73 72 70 70 71 72 73 72 73 75 75 74 75 74 73 71 71 71 72 72 72 71 70 71 72 73 75 76 77 77 78 79 79 79 79 78 79 78 80 81 81 82 83 85 85 85 87 88 89 88 88 89 90 90
52 54 59 63 57 58 67 70 70 68 70 69 69 69 70 71 70 71 73 75 76 76 75 72 72 70 70 71 71 70 71 71 70 71 72 74 76 77 78 78 79 79 79 79 79 79 79 80 81 81 82 83 84 85 85 85 85 84 85 88 89 89 90
52 61 64 65 64 62 64 65 68 69 69 69 67 67 67 68 70 71 71 72 73 72 73 73 71 69 69 71 72 73 73 71 72 72 73 74 75 76 77 78 77 78 78 79 79 79 79 80 81 81 81 82 82 84 85 85 84 84 84 83 84 86 86
61 65 64 65 63 60 63 67 68 68 69 68 67 68 69 69 70 71 71 71 70 69 71 72 71 70 71 73 74 72 72 73 73 74 74 75 76 76 77 76 76 76 76 77 77 78 79 80 80 80 81 81 82 84 85 86 86 84 83 83 82 82 83
59 64 64 64 63 63 66 67 68 68 68 68 66 67 68 69 70 71 70 70 71 70 68 69 73 74 73 73 73 72 72 74 75 76 76 75 76 76 76 76 75 75 76 77 77 78 79 79 80 80 79 79 81 82 82 83 84 85 86 86 85 84 83
MSLP
998.05 998.93 998.49 998.61 997.85 1005.09 1001.53 1001.89 1004.05 1002.37 999.97 1001.45 1004.13 1003.37 1002.13 1002.41 1003.81 1005.13 1001.29 1002.85 1001.69 998.89 998.69 997.89 998.09 997.81 997.21 996.97 997.09 997.13 997.13 997.21 997.09 997.61 999.05 998.97 998.85 998.73 999.05 1000.05 999.93 1000.29 1000.49 1000.97 1001.21 1001.65 1002.05 1002.49 1002.89 1003.05 1003.21 1003.41 1003.97 1004.65 1005.37 1006.05 1006.49 1006.81 1007.21 1007.57 1007.89 1008.25 1008.65
997.33 996.85 997.57 997.89 997.49 997.57 1000.13 1003.49 1001.37 999.49 998.65 999.77 1003.09 1006.77 1005.05 1006.49 1007.85 1005.45 1001.93 1003.49 1003.29 1003.85 1005.17 998.53 999.01 999.29 998.25 997.45 997.29 996.97 997.01 997.09 997.61 997.33 997.49 998.41 998.41 998.05 998.17 998.73 998.97 999.41 999.77 1000.33 1000.69 1000.93 1001.33 1001.73 1001.97 1002.33 1002.65 1002.73 1003.17 1003.81 1004.45 1005.37 1005.93 1006.53 1006.69 1007.01 1007.37 1007.69 1008.21
997.37 996.61 997.93 999.21 997.37 996.69 998.77 1000.45 997.37 1002.05 1005.45 1006.25 1003.05 1005.05 1008.01 1007.89 1008.57 1006.53 1003.57 1002.09 1001.73 1001.85 1002.73 999.41 999.41 999.65 999.09 997.81 997.25 997.21 997.29 997.17 997.09 996.97 996.77 997.25 997.61 997.61 997.89 998.61 998.85 999.25 999.57 999.93 1000.25 1000.37 1000.41 1000.81 1001.33 1001.73 1002.09 1002.45 1002.81 1003.25 1003.69 1004.25 1005.05 1005.29 1005.65 1005.97 1006.41 1006.85 1007.25
997.01 997.77 998.85 1002.21 1000.33 997.85 997.09 996.61 998.77 998.05 1000.25 1002.65 1004.85 1004.01 1003.53 1003.97 1006.21 1007.01 1005.29 1003.33 1004.09 999.65 999.21 998.01 998.45 998.17 998.25 997.97 997.57 997.49 996.49 996.29 996.29 996.25 996.13 996.49 997.21 997.25 997.37 998.01 998.73 998.77 998.73 998.89 999.21 999.61 1000.05 1000.49 1001.09 1001.45 1001.85 1002.17 1002.57 1002.77 1003.33 1003.77 1004.13 1004.61 1005.17 1005.61 1006.01 1006.53 1006.65
997.17 1000.81 998.57 999.61 998.97 1000.33 1000.53 1000.21 1000.09 999.93 1000.29 998.21 1000.05 1000.93 1003.01 1004.29 1005.41 1004.97 1004.69 1005.17 1002.13 998.09 995.49 996.33 997.05 997.25 997.21 997.25 997.53 997.21 996.41 995.53 995.61 995.65 995.77 996.29 996.85 997.13 996.93 997.65 998.41 998.05 998.13 998.21 998.53 998.97 999.33 999.77 1000.45 1000.93 1001.29 1001.73 1001.97 1002.33 1002.85 1003.17 1003.89 1004.33 1004.77 1004.97 1005.33 1005.73 1006.01
999.21 998.09 996.41 996.57 996.85 997.29 998.69 999.65 1000.17 999.17 1001.53 1002.49 1004.61 1004.89 1000.57 1001.69 1003.57 1004.85 1004.89 1004.77 999.49 996.53 994.25 995.41 995.73 995.81 996.37 996.09 996.25 996.73 996.37 995.41 995.21 995.33 995.41 995.85 996.93 997.01 997.09 997.33 997.65 997.37 997.61 997.89 998.17 998.65 998.97 999.37 999.93 1000.37 1000.53 1001.09 1001.53 1001.81 1002.01 1002.45 1002.93 1003.41 1003.77 1004.21 1004.57 1005.01 1005.33
998.09 996.89 995.33 995.13 994.85 995.37 996.65 997.73 998.81 997.49 998.69 999.73 1002.17 1005.65 1003.37 1002.05 1001.61 1000.81 1001.29 1003.57 1001.17 996.65 995.33 995.61 995.69 995.29 995.37 995.53 995.53 995.89 995.77 995.41 994.85 994.81 994.81 995.05 995.53 996.37 996.41 996.45 996.57 997.01 997.29 997.57 997.73 998.41 998.85 999.05 999.41 999.93 1000.25 1000.53 1000.77 1001.09 1001.45 1001.81 1002.21 1002.61 1002.65 1003.09 1003.57 1004.17 1004.69
995.85 995.01 994.33 994.93 994.81 995.17 997.05 997.09 996.61 997.33 998.89 998.65 999.81 1000.97 1000.29 1002.29 1002.09 1003.53 1003.09 1005.09 1001.17 997.09 995.33 995.21 995.73 995.61 994.85 994.77 995.25 995.81 995.25 995.01 994.65 994.77 994.65 994.85 995.37 995.45 995.61 995.37 996.05 996.93 997.25 997.17 997.65 998.37 998.93 999.09 999.25 999.49 999.61 999.77 1000.01 1000.37 1000.69 1001.01 1001.49 1001.73 1002.01 1002.37 1002.93 1003.65 1004.21
998.57 997.53 996.41 996.53 995.65 995.45 996.57 997.33 996.93 996.45 996.77 997.29 997.53 998.09 998.01 1001.93 1001.17 1001.49 1003.29 1006.41 1002.09 997.93 995.85 995.97 996.01 995.69 995.73 995.25 994.97 995.01 995.45 995.29 994.57 994.65 994.41 994.77 995.49 996.25 996.33 996.21 996.01 995.97 996.53 997.37 997.77 998.01 998.45 998.65 998.65 998.89 999.25 999.49 999.57 999.77 999.85 1000.21 1000.49 1000.77 1001.25 1001.53 1002.13 1002.85 1003.41
1002.17 1002.61 1002.05 1000.69 999.57 997.93 996.09 996.01 996.53 996.65 997.13 997.57 999.05 1001.49 1000.65 1003.53 1000.81 1000.41 1002.21 1002.33 998.85 998.21 997.37 997.37 996.53 995.73 995.77 994.85 994.89 994.65 994.45 995.17 994.97 995.05 995.81 996.37 996.49 996.97 996.73 996.61 996.49 996.69 996.81 997.13 997.57 997.77 998.05 998.29 998.41 998.65 998.93 999.05 999.13 999.25 999.41 999.29 999.85 1000.29 1000.69 1000.89 1001.41 1002.17 1002.77
999.05 998.85 998.17 995.29 995.49 996.89 998.05 996.89 996.49 996.97 996.73 996.25 997.49 998.85 1000.81 1002.81 1001.21 1001.69 1000.29 999.37 1000.93 999.53 998.53 997.81 996.85 996.57 996.97 996.81 995.61 995.57 995.85 995.45 996.13 996.45 996.45 996.57 997.01 997.21 997.01 997.05 996.85 996.85 997.13 997.49 997.81 997.93 998.01 998.05 998.17 998.29 998.49 998.73 998.77 998.93 999.13 999.05 999.17 999.61 1000.01 1000.45 1000.97 1001.61 1002.17
998.21 999.57 998.49 996.93 995.41 996.77 996.81 996.85 997.13 996.37 997.05 996.97 997.89 999.61 1000.77 998.85 1000.89 1003.45 999.97 998.89 1000.41 999.73 998.85 998.41 998.01 996.93 996.49 996.13 995.85 995.73 995.77 996.05 996.09 996.61 996.73 996.41 996.81 996.85 996.93 997.13 997.49 997.77 997.69 997.61 997.73 997.97 997.89 997.85 997.85 997.97 997.97 998.13 998.41 998.57 998.85 998.81 998.81 999.17 999.49 999.97 1000.57 1001.17 1001.73
997.77 998.13 999.21 997.61 996.81 996.29 996.05 996.25 996.29 996.93 996.53 997.17 998.33 998.41 998.05 998.41 1000.97 1001.89 999.69 999.49 1000.45 999.17 998.41 997.65 996.93 996.93 997.33 996.85 996.53 995.57 995.17 995.77 996.13 996.45 996.61 996.33 996.45 996.93 997.09 997.33 997.45 997.65 997.93 997.93 997.85 997.85 997.89 997.69 997.85 997.89 997.93 997.93 998.01 998.21 998.29 998.53 998.57 998.65 998.97 999.69 1000.29 1000.77 1001.33
998.93 998.93 999.13 998.33 998.45 996.81 997.29 996.81 995.49 995.49 996.01 996.65 997.17 997.49 997.21 997.81 999.13 998.53 998.25 999.41 999.69 997.93 997.37 996.97 996.77 996.41 996.21 996.09 995.57 995.73 996.37 996.29 995.85 996.09 996.65 996.21 995.85 996.25 996.81 997.09 997.13 997.33 997.37 997.57 997.69 997.65 997.81 997.77 997.77 997.77 997.93 997.97 997.97 998.21 998.37 998.33 998.49 998.29 998.57 999.37 1000.01 1000.37 1000.85
1000.21 998.73 998.57 999.09 998.33 998.49 998.49 996.73 995.61 995.41 995.65 995.89 996.29 996.85 996.89 997.21 997.93 998.01 998.21 999.69 1000.13 997.09 995.61 995.77 995.21 995.69 996.01 996.33 996.85 996.69 996.37 996.29 996.41 996.85 996.93 996.61 996.37 995.61 995.77 996.21 996.45 996.77 996.93 997.05 997.33 997.53 997.65 997.61 997.53 997.53 997.53 997.61 997.73 997.77 997.89 997.97 998.25 998.05 998.13 999.01 999.57 1000.09 1000.45
1001.89 1000.13 1000.37 999.61 999.45 999.33 998.89 997.89 997.13 996.21 995.93 997.25 996.53 997.37 996.25 997.73 998.97 998.61 998.97 1000.49 1000.73 997.69 996.37 996.13 996.41 997.01 997.57 997.73 997.65 997.53 997.41 997.01 997.01 997.25 997.13 996.89 996.57 996.25 996.21 995.85 995.57 996.13 996.49 996.77 997.05 997.21 997.13 997.09 997.13 997.17 997.29 997.33 997.53 997.65 997.45 997.61 997.69 997.85 998.09 998.53 999.17 999.69 999.93
1002.53 999.93 999.41 999.93 999.53 1000.29 1001.37 1000.49 998.49 997.61 996.77 995.61 994.97 995.13 995.33 996.01 996.37 998.61 1000.17 999.77 997.53 996.97 996.65 997.73 997.65 997.77 997.89 997.93 997.77 997.73 997.21 997.13 997.25 997.37 997.37 997.05 996.73 996.33 996.05 996.05 996.05 995.65 995.37 995.53 996.25 996.17 995.97 996.21 996.53 996.49 996.57 996.89 997.17 997.09 997.21 997.17 997.17 997.57 997.85 998.01 998.69 999.41 999.73
1002.41 999.93 999.61 999.73 1002.13 1003.89 1002.41 997.45 996.29 996.65 997.69 997.73 998.33 998.05 997.45 996.89 997.13 997.97 997.49 997.61 997.09 997.57 997.85 998.33 998.21 997.93 997.65 997.45 996.89 996.21 996.81 997.29 997.25 996.93 996.57 996.41 996.09 995.77 995.57 995.57 995.69 995.61 995.53 995.53 995.45 995.29 995.45 995.37 995.25 995.45 995.69 996.13 996.37 996.45 996.65 996.73 997.05 997.17 997.65 997.93 998.25 998.93 999.33
1001.73 1000.13 1000.49 1002.61 1003.93 1001.73 997.97 996.61 996.29 996.37 996.69 996.77 997.49 997.41 997.09 996.97 997.01 997.33 997.77 997.57 997.45 997.13 997.09 997.09 997.05 996.97 996.57 996.41 996.53 996.33 995.61 995.77 996.17 996.53 996.45 996.49 996.45 996.33 996.09 995.97 995.53 995.69 995.89 995.97 995.89 995.97 995.49 994.97 994.85 994.93 995.37 995.65 995.93 996.21 996.29 996.61 996.73 997.21 997.41 997.85 998.05 998.49 999.05
1001.61 1001.57 1002.69 1005.41 1003.69 999.45 997.49 996.97 996.73 995.93 996.05 996.73 997.93 998.61 997.49 996.69 996.73 997.09 997.81 997.45 997.21 997.17 997.37 997.09 996.85 997.25 997.13 996.73 996.29 996.17 995.93 995.65 995.93 996.05 996.13 995.85 995.57 995.69 995.33 995.53 996.05 996.29 996.05 996.01 995.93 995.85 995.29 995.25 994.97 994.85 994.97 994.93 995.45 995.81 995.73 996.21 996.49 996.73 997.13 997.61 997.89 998.09 998.65
1004.21 1002.41 1001.65 1002.29 1000.53 1000.77 999.45 999.17 999.37 998.77 999.29 998.21 998.77 1000.77 998.81 996.77 996.09 996.33 997.09 997.01 996.77 996.65 996.53 996.65 996.61 996.61 996.89 998.01 997.85 996.17 995.77 995.53 995.09 995.13 995.01 994.69 994.73 994.73 994.89 995.09 995.53 995.77 995.89 995.97 995.77 995.69 995.69 995.45 995.21 994.89 994.45 994.41 994.85 995.25 995.65 995.81 996.17 996.45 996.77 997.33 997.53 997.65 998.01
1002.85 1003.13 1002.97 1002.57 1002.13 1003.65 1001.29 998.93 997.85 997.29 996.73 996.57 996.61 998.49 999.37 996.97 996.73 996.21 996.93 998.01 998.17 998.17 997.81 997.61 997.57 997.81 999.65 1000.65 999.17 996.53 995.25 994.65 995.21 994.93 993.85 993.53 994.17 994.73 995.25 995.41 995.45 995.45 995.37 995.45 995.37 995.57 995.61 995.45 995.13 994.77 994.41 994.33 994.61 995.13 995.45 995.57 995.97 996.29 996.53 996.81 996.89 997.21 997.61
1003.49 1003.89 1003.85 1003.29 1003.57 1001.49 998.37 999.09 998.13 997.41 997.61 997.53 998.05 1000.29 1001.61 997.69 996.85 997.61 997.77 998.21 998.25 998.29 998.49 998.41 998.89 1000.05 1001.45 1000.61 998.53 997.05 996.49 996.25 995.77 996.21 996.01 995.49 995.61 995.65 995.69 995.77 995.89 995.81 996.13 996.25 996.09 995.73 995.61 995.65 994.97 994.65 994.69 994.53 994.57 995.13 995.33 995.29 995.49 996.05 996.21 996.29 996.53 996.89 997.17
1004.29 1003.93 1004.37 1003.53 1001.41 1001.93 1000.01 999.01 998.25 997.61 997.45 998.05 999.37 1004.05 1001.89 999.09 998.13 998.17 998.17 998.53 998.57 998.85 999.37 999.53 999.65 1000.25 1001.33 1000.01 998.45 997.33 996.65 996.69 996.29 996.73 996.97 996.73 996.53 996.17 995.73 995.45 996.01 996.33 996.17 996.17 996.13 995.73 995.37 995.21 994.65 994.61 994.57 994.77 994.89 994.97 995.17 995.05 995.25 995.61 995.65 995.81 995.97 996.25 996.61
1005.17 1005.09 1003.93 1002.29 1000.89 999.41 999.73 999.41 998.53 998.69 997.53 999.21 1003.01 1003.81 1002.17 1000.01 999.21 998.97 999.09 998.81 998.97 999.33 999.77 999.57 1000.25 998.77 998.05 997.85 997.93 997.05 997.01 997.05 997.37 997.01 996.81 996.65 996.53 996.61 996.45 996.53 996.57 996.33 995.93 995.81 996.05 995.69 995.37 995.45 995.05 994.57 994.37 994.77 995.17 995.01 995.01 995.25 995.21 994.89 995.05 995.29 995.65 996.01 996.33
1004.93 1004.61 1004.77 1003.61 1001.29 999.05 998.17 999.45 999.05 998.85 1000.57 1003.45 1003.45 1002.89 1000.53 999.81 999.77 999.25 999.13 999.45 999.33 999.41 999.85 999.81 999.45 999.01 998.21 997.85 997.53 997.65 997.61 998.01 997.89 997.73 997.25 997.21 996.97 996.49 996.45 996.69 996.73 996.61 996.09 996.21 995.97 995.37 995.33 995.09 994.77 994.73 994.85 995.05 995.09 995.17 995.29 995.45 995.13 994.45 994.53 995.05 995.41 995.85 996.25
1004.29 1003.85 1004.77 1005.13 1005.45 1002.25 999.73 1000.37 999.97 1000.25 1002.69 1003.53 1003.05 1001.49 1000.21 999.33 999.41 999.61 999.53 999.49 999.73 999.73 1000.25 999.77 999.73 999.41 998.93 998.81 998.73 998.45 998.37 998.37 998.33 998.05 997.85 997.89 997.93 997.69 997.45 996.97 996.69 996.77 996.53 996.57 996.25 996.13 995.53 995.37 995.21 994.85 994.69 995.21 995.29 995.29 995.61 995.37 994.81 994.53 994.49 994.81 995.33 995.73 996.21
1005.13 1004.85 1005.21 1004.41 1002.01 1002.49 1000.81 1000.81 1003.65 1003.53 1002.81 1002.21 1001.93 1001.85 1001.13 999.81 999.45 1000.65 1000.45 999.97 1000.13 1000.09 1000.45 1000.65 1000.41 1000.05 999.77 999.41 998.89 998.85 998.85 998.69 998.17 997.97 997.85 997.85 997.85 997.61 996.97 996.93 997.13 996.97 996.81 996.65 996.53 996.37 996.21 996.05 995.77 995.45 995.09 995.37 995.45 995.65 995.69 994.97 994.89 994.73 994.73 994.97 995.33 995.89 996.29
1005.97 1004.25 1002.65 1003.29 1003.09 1002.25 1001.45 1001.21 1002.05 1001.85 1001.53 1001.33 1001.65 1001.93 1002.09 1002.01 1001.45 1000.77 1000.69 1000.77 1000.37 1000.33 1000.69 1000.89 1000.69 1000.45 999.61 999.45 999.05 999.33 999.21 998.89 998.69 998.65 998.61 998.37 998.25 997.77 997.57 997.57 997.53 997.25 997.05 997.33 997.09 996.85 996.49 996.33 996.09 995.89 995.25 995.41 995.77 995.93 995.77 995.21 995.17 995.17 995.13 995.33 995.81 996.21 996.41
1004.53 1003.89 1003.97 1003.57 1002.97 1002.49 1001.89 1001.37 1001.85 1002.17 1001.65 1001.25 1001.53 1002.21 1002.77 1002.25 1001.89 1001.37 1001.29 1000.81 1000.53 1000.53 1000.65 1001.17 1000.97 1000.85 1000.37 1000.13 999.77 999.49 999.25 999.05 998.77 998.61 998.53 998.33 998.01 997.73 997.41 997.61 997.73 997.57 997.05 997.29 997.41 997.45 996.93 996.45 996.37 996.17 995.81 995.57 996.17 996.17 995.69 995.57 995.49 995.45 995.49 995.85 996.25 996.45 996.45
1006.21 1006.17 1003.17 1003.37 1003.21 1003.05 1003.41 1003.25 1002.81 1002.29 1001.77 1001.73 1001.73 1002.09 1002.57 1002.53 1002.13 1001.65 1001.21 1000.89 1000.93 1000.49 1000.81 1001.01 1001.29 1001.25 1000.81 1001.09 1000.81 1000.33 999.77 999.49 999.21 998.97 998.85 998.69 998.65 998.65 998.65 998.41 998.25 997.97 997.57 997.77 998.05 997.81 997.65 996.89 996.49 996.37 996.33 996.13 996.13 996.13 996.09 995.69 995.57 995.77 995.97 996.21 996.49 996.57 996.61
1006.77 1005.57 1003.69 1002.69 1002.73 1003.41 1003.61 1003.41 1003.13 1003.01 1002.37 1002.25 1002.25 1002.41 1002.25 1002.21 1001.93 1001.69 1001.53 1001.29 1001.09 1000.93 1001.09 1001.13 1001.45 1001.37 1001.05 1001.37 1001.25 1000.65 1000.37 1000.09 999.77 999.45 999.25 999.05 998.93 998.65 998.53 998.45 998.33 998.25 998.29 998.41 998.25 998.09 998.09 997.73 997.37 997.13 996.89 996.65 996.45 996.13 995.89 995.61 995.49 995.89 996.21 996.33 996.53 996.69 996.61
1004.69 1004.25 1004.01 1003.57 1003.61 1003.65 1003.33 1003.09 1002.73 1002.57 1002.73 1003.17 1003.09 1002.85 1002.69 1002.37 1002.49 1002.17 1001.65 1001.41 1001.49 1001.21 1001.17 1001.13 1001.37 1001.41 1001.29 1001.29 1001.13 1000.97 1000.89 1000.89 1000.65 1000.33 999.97 999.53 999.29 999.09 999.05 998.81 998.57 998.57 998.53 998.53 998.45 998.37 998.37 998.01 997.77 997.65 997.49 997.17 996.81 996.73 996.49 996.17 995.89 995.89 996.21 996.45 996.33 996.45 996.49
1006.13 1005.49 1004.49 1004.01 1005.13 1004.33 1002.85 1002.29 1002.77 1003.53 1003.17 1003.41 1003.45 1003.29 1003.09 1002.93 1002.93 1002.65 1002.29 1001.65 1001.33 1001.25 1001.05 1001.45 1001.49 1001.65 1001.41 1001.25 1001.13 1001.13 1000.93 1000.89 1000.85 1000.57 1000.21 999.77 999.45 999.29 999.09 998.93 998.73 998.65 998.53 998.49 998.49 998.45 998.37 998.01 997.81 997.73 997.61 997.41 997.05 996.77 996.69 996.53 996.45 996.69 996.65 996.41 996.41 996.53 996.53
1005.37 1004.01 1003.53 1003.53 1003.85 1004.05 1003.93 1003.73 1003.45 1003.25 1003.45 1003.65 1003.85 1003.77 1003.69 1003.41 1003.01 1002.73 1002.61 1002.33 1001.97 1001.97 1001.57 1001.37 1001.73 1001.89 1001.73 1001.37 1001.01 1000.73 1000.69 1000.73 1000.49 1000.45 1000.29 1000.09 999.73 999.45 999.17 999.09 999.09 998.97 998.89 998.65 998.53 998.57 998.37 998.05 997.97 997.89 997.81 997.65 997.53 997.17 996.81 996.81 996.89 997.05 996.97 997.13 997.09 997.09 997.21
1004.45 1003.97 1003.93 1003.97 1004.37 1004.77 1004.25 1003.69 1003.61 1003.73 1003.69 1003.85 1003.97 1003.73 1003.45 1003.37 1003.17 1002.89 1002.73 1002.49 1002.57 1002.45 1002.09 1001.65 1001.61 1001.73 1001.53 1001.09 1000.77 1000.93 1000.73 1000.45 1000.33 1000.21 1000.09 999.89 999.69 999.53 999.41 999.37 999.41 999.33 999.25 999.09 998.97 998.85 998.45 998.25 998.21 998.09 998.05 997.85 997.69 997.45 997.17 996.89 996.81 997.13 997.33 997.53 997.85 997.93 997.85
1004.85 1004.29 1004.49 1004.61 1004.73 1004.73 1004.29 1003.89 1003.69 1003.61 1003.61 1003.85 1003.93 1003.81 1003.57 1003.37 1003.09 1002.89 1002.85 1002.73 1002.49 1002.37 1002.49 1002.13 1001.41 1001.21 1001.17 1000.93 1000.77 1000.81 1000.77 1000.41 1000.05 999.89 999.77 999.81 999.81 999.73 999.69 999.61 999.61 999.53 999.45 999.25 998.97 998.73 998.57 998.49 998.33 998.25 998.37 998.29 998.01 997.85 997.73 997.57 997.45 997.29 997.17 997.21 997.53 997.81 998.13
Wind_Speed
21 24 22 20 16 14 15 15 18 16 12 13 9 9 10 11 10 12 9 11 13 5 9 13 11 10 13 19 20 18 14 16 15 15 19 16 16 17 17 19 18 20 20 21 21 22 21 21 22 22 22 23 23 22 22 23 23 22 22 21 20 19 18
20 21 23 22 20 13 12 17 16 13 13 12 10 10 7 8 9 8 10 13 12 12 9 10 12 14 14 16 19 20 19 17 18 15 17 18 18 18 17 18 19 21 21 23 22 21 23 23 24 24 24 23 22 22 23 24 23 23 22 22 21 20 19
20 19 21 21 22 21 14 14 13 15 14 16 13 8 13 11 12 9 10 12 10 12 10 8 16 16 14 14 16 18 19 20 19 19 19 22 21 18 17 19 18 18 19 21 21 23 24 24 23 23 23 23 22 22 23 24 25 25 25 21 21 18 19
21 18 18 20 19 22 21 13 16 15 11 13 13 12 7 8 8 9 11 13 11 11 10 11 8 14 14 13 13 14 16 17 16 16 17 18 18 15 16 14 15 18 21 23 25 24 24 24 23 22 23 21 24 23 23 23 23 22 22 21 20 20 20
20 17 16 19 20 21 20 17 14 15 12 9 10 11 13 9 9 8 7 10 11 11 12 12 8 10 14 14 13 11 12 14 16 15 14 14 15 14 14 17 19 20 21 22 23 22 20 20 20 20 21 23 23 22 23 24 24 24 24 23 22 19 18
19 18 19 22 22 21 19 17 15 15 16 15 16 14 11 13 9 6 7 7 2 9 5 3 7 10 11 12 12 13 12 12 14 14 15 16 16 17 17 17 21 19 18 19 19 18 17 19 21 23 22 22 23 23 22 23 23 23 24 23 21 20 19
17 19 20 21 21 22 21 19 17 16 15 14 12 10 11 11 12 9 8 6 2 7 6 5 6 8 10 10 9 10 12 12 12 13 14 16 17 18 17 17 11 10 15 16 17 19 20 20 20 22 21 21 22 24 23 22 23 24 24 23 21 19 19
14 18 18 20 21 22 21 20 19 17 18 18 12 10 8 10 11 12 8 7 3 8 9 9 10 5 3 9 10 10 10 10 11 11 13 16 14 13 13 12 17 17 16 15 14 17 17 16 18 21 21 21 21 22 22 22 24 25 24 22 21 20 19
11 15 15 17 19 19 16 17 19 20 18 19 16 11 8 10 12 13 10 10 7 11 8 7 1 6 9 10 9 12 11 10 8 10 6 9 9 8 8 8 8 10 13 15 13 15 15 16 19 18 20 20 21 22 22 23 23 24 22 21 21 21 22
16 16 17 18 20 21 15 18 22 24 23 22 17 15 10 8 9 13 10 8 5 12 7 8 11 8 8 8 13 10 6 10 7 8 10 7 6 6 7 8 9 12 11 13 13 14 13 16 17 16 16 19 20 20 22 22 21 21 22 21 22 21 21
12 4 4 13 17 15 19 22 24 24 24 22 18 11 12 12 7 9 9 6 11 10 12 9 9 7 9 5 6 12 12 9 13 10 7 6 5 6 7 8 7 6 7 10 12 12 14 16 16 16 17 18 19 17 20 21 20 21 20 20 20 21 21
4 8 6 11 10 20 21 21 23 23 25 23 22 17 14 9 9 10 9 11 6 10 11 8 8 9 7 6 4 8 9 9 8 9 5 8 8 7 8 9 9 10 9 10 11 13 15 15 16 15 17 18 17 17 19 19 19 19 18 19 20 20 19
17 8 8 7 6 14 17 23 21 25 24 25 25 21 17 14 12 9 12 11 9 7 10 11 10 10 8 9 9 7 8 10 8 6 5 3 10 10 10 9 10 10 10 10 11 13 13 15 16 17 16 16 15 16 16 17 18 20 18 18 19 20 19
16 9 10 7 9 10 7 13 23 22 24 25 25 21 20 18 12 11 9 16 17 9 11 12 11 8 5 2 2 5 2 7 6 5 2 3 7 12 9 9 9 10 11 11 12 12 13 15 15 16 15 14 16 16 16 17 17 17 16 18 17 19 20
16 15 12 9 10 5 10 13 17 22 21 21 23 22 20 19 15 15 9 9 11 13 9 9 5 2 2 5 7 8 3 5 5 3 3 3 4 6 9 8 8 7 9 11 12 13 14 14 15 15 14 15 14 16 16 18 18 17 17 15 18 19 18
12 12 13 10 8 8 12 11 9 11 21 23 20 19 17 17 16 14 14 11 9 6 7 6 2 2 3 2 1 3 4 5 5 5 5 5 5 5 4 6 0 3 5 8 10 13 14 15 16 15 13 14 15 16 16 17 17 17 17 17 19 17 16
11 14 14 12 11 8 11 14 15 15 11 9 12 13 15 16 13 14 13 9 6 6 7 8 6 6 7 8 7 7 8 6 7 7 7 7 7 6 5 6 7 8 6 6 8 6 6 10 12 15 15 15 15 15 14 14 14 17 19 19 15 15 16
10 15 17 13 11 16 14 9 13 12 14 13 11 12 11 9 8 7 5 6 6 6 6 7 6 7 5 4 6 5 5 5 6 8 9 8 7 6 6 6 7 7 6 5 5 4 4 6 10 12 13 14 13 14 14 14 16 15 15 16 16 17 16
11 9 8 12 19 17 4 8 12 15 16 14 15 12 12 12 13 14 12 11 8 4 6 7 7 6 3 2 4 5 6 5 6 6 7 6 6 8 7 7 7 4 3 3 3 3 6 5 4 6 10 12 11 13 14 15 15 12 14 15 14 16 16
7 9 12 11 11 5 11 8 4 6 14 19 17 17 17 15 13 13 15 14 11 10 7 5 2 2 5 8 8 4 6 8 9 10 8 8 8 7 6 5 4 3 4 4 4 4 4 4 5 7 8 10 13 14 15 16 16 16 15 14 16 15 16
8 6 10 10 8 2 6 9 7 5 8 10 15 15 15 18 13 9 10 11 12 10 9 7 7 4 3 3 4 7 10 11 12 12 11 10 9 6 5 5 5 5 3 4 4 4 5 7 8 8 8 10 12 13 15 15 16 17 17 15 17 15 16
9 8 11 11 11 10 11 8 6 6 8 10 8 9 8 9 13 13 5 3 0 3 4 5 4 2 3 6 7 10 11 7 7 12 12 11 4 7 7 7 5 5 4 3 3 4 6 7 8 8 9 9 10 11 13 15 16 17 18 18 17 15 15
10 11 13 12 12 8 2 12 12 7 3 4 5 6 10 6 4 5 9 10 9 10 8 5 1 4 8 7 7 7 9 10 10 9 13 12 10 8 8 8 8 7 7 7 8 8 8 9 8 8 10 10 11 11 12 15 16 17 17 16 16 16 15
11 12 12 12 9 4 5 8 4 8 5 4 7 10 11 9 1 5 1 4 2 2 1 3 5 8 9 10 2 8 9 10 8 8 10 9 9 8 8 7 8 8 8 7 7 8 8 7 8 9 8 9 10 9 13 14 15 17 16 13 12 14 14
12 13 11 10 10 6 7 3 5 7 6 7 10 9 9 6 6 4 4 1 3 2 1 2 5 4 5 8 9 9 11 8 8 9 8 8 8 7 8 8 10 8 7 5 5 7 5 5 5 5 6 8 9 9 9 11 14 14 13 10 11 12 12
14 13 12 10 9 1 3 12 5 6 5 10 6 6 7 4 2 5 3 5 4 4 5 4 5 7 10 12 11 9 9 9 8 9 8 8 7 8 7 6 6 7 7 5 6 4 4 4 5 7 7 6 7 7 9 11 11 9 9 10 10 12 13
10 13 14 10 11 6 14 10 6 6 6 6 5 9 7 4 1 6 6 6 6 7 6 6 7 9 10 10 11 10 9 9 9 8 7 6 7 7 7 6 6 6 7 4 5 5 6 7 6 6 6 7 6 7 8 8 8 7 7 10 11 11 11
11 13 13 7 2 9 10 9 3 6 5 5 8 7 5 6 3 7 7 6 7 7 6 7 8 9 10 9 7 7 7 8 8 7 6 6 6 6 6 5 6 7 5 4 4 5 6 6 6 6 6 5 6 6 6 5 6 6 6 7 8 10 10
4 5 5 6 7 7 6 7 6 6 8 5 9 8 7 7 8 10 7 8 8 8 8 8 8 9 8 8 8 7 8 7 7 7 7 8 7 7 5 5 6 6 4 4 5 6 5 6 4 6 4 4 5 6 4 1 4 6 7 6 8 9 10
8 12 12 9 5 4 6 7 7 9 10 9 7 9 9 9 11 10 10 12 11 10 10 9 8 8 11 11 10 9 8 8 8 7 6 7 6 7 6 5 5 6 3 3 4 4 3 3 4 4 5 4 4 4 2 1 1 1 3 5 7 8 8
3 6 5 7 5 6 8 10 9 8 8 9 9 8 8 9 11 12 12 12 12 12 12 11 10 10 8 8 9 9 7 7 7 7 7 6 6 6 6 5 5 4 5 3 3 1 3 5 3 4 4 3 2 2 2 4 3 1 3 5 6 6 7
8 10 10 11 10 12 10 10 10 8 7 9 9 9 9 10 11 11 11 12 11 11 10 10 9 9 6 6 6 6 7 7 7 7 6 6 6 4 5 3 4 1 2 1 1 3 5 5 6 6 4 3 4 3 2 1 2 5 4 5 5 6 7
11 12 14 14 15 16 15 13 13 10 8 7 10 11 11 11 12 13 12 9 10 10 10 9 9 9 7 7 6 5 5 6 7 8 8 6 6 6 6 5 6 4 1 2 4 4 5 4 4 3 4 5 5 5 4 4 3 4 5 4 3 6 5
11 11 10 10 11 9 9 11 4 8 8 10 11 11 11 11 11 12 13 12 11 11 8 8 8 9 6 5 5 5 3 3 5 6 6 7 5 3 3 4 3 0 2 2 3 4 5 4 4 5 6 6 5 5 5 4 5 7 5 3 6 6 5
11 10 12 10 9 11 11 13 12 9 9 11 12 11 11 12 12 12 12 13 12 10 8 5 6 6 5 4 5 4 1 2 2 2 3 4 3 2 2 1 0 3 3 3 4 4 5 4 5 5 6 6 6 5 4 5 5 5 5 6 6 6 5
15 14 12 12 10 12 13 15 14 13 11 11 13 12 11 11 11 11 12 11 12 11 10 6 4 5 5 4 3 1 1 1 2 3 1 1 2 1 2 2 2 2 3 4 4 4 4 5 6 6 6 6 6 5 5 4 4 5 6 6 5 5 4
13 11 11 12 12 14 14 15 14 14 13 13 13 13 12 12 12 12 12 11 10 11 10 8 6 5 5 3 3 2 3 3 2 2 3 3 4 4 4 4 5 4 4 4 4 5 5 5 6 6 8 8 7 7 7 7 6 4 4 4 6 7 7
Wind_Direction
196 196 196 208 200 199 181 197 207 210 206 225 234 241 236 240 235 230 207 207 218 242 222 219 219 242 219 211 215 215 207 201 207 186 169 185 202 207 193 198 192 189 187 187 189 190 190 189 188 188 184 183 184 182 182 182 182 182 182 183 184 185 185
197 192 199 206 206 217 174 205 204 202 220 237 234 235 200 224 233 226 218 215 201 208 228 193 203 211 221 210 209 211 210 203 202 206 181 179 199 207 194 197 188 187 187 187 189 190 191 191 190 189 186 185 181 182 182 182 182 183 184 184 185 184 185
186 185 193 208 213 214 219 204 182 201 186 208 210 237 228 206 215 232 222 231 229 202 213 211 203 203 212 212 200 208 206 207 208 203 198 182 192 200 192 196 190 186 187 186 190 192 193 192 191 191 187 184 183 183 184 183 184 185 185 186 186 185 185
176 185 190 205 199 201 227 217 199 208 221 209 201 209 242 240 228 212 227 223 234 215 225 211 180 195 198 207 199 211 207 196 197 197 195 181 184 198 193 191 201 192 188 190 191 192 192 191 190 190 188 188 187 185 183 186 187 186 186 186 184 186 188
172 196 194 205 194 190 195 217 209 189 221 204 223 201 218 217 231 230 228 211 221 223 209 209 179 175 193 196 198 200 223 194 189 194 184 172 182 201 208 181 203 194 192 192 191 192 192 189 187 189 189 191 190 187 187 187 186 187 188 189 187 188 187
196 203 195 205 201 195 195 202 210 199 193 200 199 213 197 222 229 231 237 243 108 81 66 126 196 166 179 200 195 184 207 210 189 186 187 178 180 196 200 201 194 196 189 191 189 187 191 190 188 191 191 190 190 191 190 189 188 188 190 190 190 187 189
208 206 194 204 211 199 200 200 208 203 197 209 206 213 191 207 226 241 246 258 127 82 91 154 184 188 193 185 197 198 185 205 196 183 186 181 180 189 199 192 180 207 192 189 187 184 190 193 190 191 192 191 193 193 190 190 191 192 192 190 189 187 188
208 201 199 195 213 205 200 204 211 205 205 201 210 207 200 207 197 213 210 235 160 133 127 116 93 34 235 164 187 208 185 195 184 183 191 179 177 183 190 196 181 185 199 185 184 181 187 194 193 192 195 195 193 192 192 192 195 193 193 191 189 188 189
191 190 193 192 200 214 208 200 203 211 208 203 209 214 205 215 199 204 203 204 220 130 144 124 225 204 194 166 160 182 183 182 175 170 143 113 125 146 190 206 196 178 175 175 181 182 185 192 197 194 195 197 196 194 193 194 195 194 193 192 190 189 190
192 186 190 192 189 204 204 206 200 205 210 204 196 210 198 225 188 205 203 203 145 111 162 185 202 178 142 155 159 151 145 158 147 134 99 97 137 156 188 189 189 186 177 172 181 185 187 192 197 196 196 200 201 199 198 196 193 192 193 193 192 190 191
201 213 250 208 193 193 207 200 205 196 210 209 207 210 214 206 193 215 203 221 126 162 140 159 129 136 130 106 109 137 148 144 86 90 92 126 153 173 176 175 173 176 176 178 180 189 191 197 199 199 201 201 204 201 202 201 196 193 192 192 192 191 191
262 331 325 346 229 201 205 207 201 203 202 211 206 208 209 192 198 218 184 232 146 148 148 145 178 168 132 125 94 98 112 113 121 104 135 140 151 154 151 161 163 175 185 186 184 189 197 200 201 203 202 204 204 204 204 203 200 195 193 192 191 191 191
239 252 342 316 247 221 209 210 207 203 202 203 213 207 211 194 213 210 177 204 226 149 172 175 159 125 148 158 167 158 128 137 135 147 83 67 127 142 154 157 166 176 179 188 191 192 199 203 204 205 205 206 205 206 208 204 206 203 194 193 192 191 192
238 223 246 282 263 229 283 254 211 205 204 202 208 211 207 210 205 223 187 189 209 203 156 162 146 164 178 169 279 9 22 171 176 81 140 199 172 158 161 163 170 179 183 182 190 192 195 202 203 203 204 209 208 206 205 204 207 207 195 193 194 194 193
236 229 216 233 246 273 240 221 219 204 206 207 202 209 207 209 211 205 202 164 203 212 218 186 151 41 318 263 232 226 252 328 352 340 282 275 254 193 145 156 178 175 186 183 185 190 194 200 201 204 204 203 207 210 205 204 203 207 201 192 195 197 197
236 216 217 212 245 234 231 229 236 235 208 203 199 206 203 204 208 206 204 201 195 176 208 247 247 205 272 277 316 288 293 268 259 263 271 292 286 249 243 245 128 146 187 190 185 188 194 197 199 202 202 202 203 209 207 206 201 202 206 199 198 197 198
227 216 217 217 222 238 243 232 216 210 222 242 206 204 202 210 213 210 214 208 192 184 180 222 206 209 228 246 253 264 256 261 272 273 274 270 268 269 229 224 230 237 239 179 176 198 205 195 198 201 199 203 204 205 207 203 200 199 205 204 193 191 196
219 213 203 212 218 223 222 208 220 223 218 207 214 199 204 205 213 226 212 220 175 195 215 228 239 234 220 236 255 268 296 289 277 267 260 261 274 285 294 312 315 306 306 298 308 295 240 224 205 199 201 204 204 203 205 201 204 203 201 206 198 193 193
214 169 188 200 218 226 196 222 222 225 236 240 235 234 220 214 211 223 225 224 233 217 223 219 218 222 232 233 304 290 265 277 287 295 286 288 285 277 271 262 278 360 14 352 295 265 267 260 241 209 198 202 200 202 203 204 201 201 198 203 202 193 193
282 187 180 209 223 249 219 189 242 260 230 222 231 237 237 238 236 223 229 230 228 227 229 243 214 252 257 255 253 278 288 278 276 278 286 287 286 279 294 337 32 1 327 330 319 330 334 288 250 234 221 203 203 203 201 203 202 200 199 198 204 196 194
247 229 199 206 100 120 190 183 194 206 217 210 217 228 219 224 231 235 234 222 223 220 221 213 225 236 280 299 271 267 280 279 271 271 281 282 266 288 330 341 347 13 341 300 301 297 268 269 271 258 241 219 209 205 202 202 201 201 198 197 201 200 197
236 228 201 212 205 211 190 197 174 192 216 232 225 237 233 202 214 224 237 258 326 273 264 273 308 313 276 266 277 265 262 273 342 342 276 237 322 3 3 5 342 320 316 313 267 259 275 266 262 266 257 238 215 207 205 200 198 202 201 200 198 198 196
209 225 224 213 221 214 19 139 170 174 114 155 118 188 225 148 185 121 230 234 238 251 266 258 195 252 259 265 267 46 21 16 7 2 10 16 15 360 353 338 334 347 355 339 311 291 278 271 261 246 250 251 227 207 207 205 199 202 204 202 196 196 195
215 215 216 217 218 178 159 123 213 149 197 83 204 196 204 129 110 72 190 227 219 235 10 297 248 240 249 243 20 8 6 353 8 8 9 359 355 343 331 350 8 341 313 289 275 264 249 254 247 248 241 238 242 217 204 211 205 203 205 200 194 196 196
222 235 221 224 219 119 64 113 156 121 208 182 203 205 110 71 59 66 35 258 44 30 299 253 260 227 273 330 349 333 346 346 4 0 348 350 343 346 343 352 344 321 303 305 321 301 339 335 311 280 251 224 226 229 210 213 218 208 198 193 190 192 193
213 212 224 222 220 311 168 155 200 93 170 194 160 8 297 356 49 45 2 8 18 20 357 333 307 315 313 314 321 326 339 347 334 332 336 341 336 324 348 336 329 328 313 336 300 314 7 304 253 240 251 247 221 221 220 219 221 219 185 181 188 191 193
224 214 217 215 222 80 15 35 197 122 285 59 332 328 304 199 5 5 16 357 22 360 353 340 327 311 314 322 326 329 329 331 329 325 327 334 328 328 320 318 345 325 318 329 337 341 344 355 344 312 246 225 219 214 221 221 218 222 204 185 187 189 190
219 213 214 217 264 27 6 359 7 12 76 352 359 336 319 338 348 22 331 1 5 353 345 343 325 319 310 306 314 324 326 324 327 328 326 329 325 309 315 341 348 324 325 334 349 9 1 354 338 330 292 213 198 201 206 203 219 225 214 183 180 186 188
307 258 242 25 330 7 356 16 29 347 1 1 5 359 354 357 355 353 339 349 348 350 350 334 325 309 310 316 321 320 324 318 311 319 319 317 318 304 324 334 344 310 338 347 347 354 6 10 357 346 328 189 178 176 87 9 202 221 210 185 179 191 192
290 278 263 266 298 329 316 345 360 343 339 353 349 5 356 356 351 345 344 336 344 347 347 334 333 332 330 325 321 325 323 320 314 301 297 293 302 302 314 333 330 305 309 16 354 347 352 30 37 12 17 52 100 75 114 177 112 117 175 178 192 195 195
278 257 261 250 270 347 334 316 318 304 323 344 347 347 355 341 341 340 337 340 337 338 338 330 329 323 332 326 332 324 316 302 303 302 306 310 312 314 318 358 323 317 332 15 16 21 46 21 45 57 54 61 101 174 189 196 176 171 193 195 196 197 201
250 261 279 281 310 312 305 287 289 306 316 343 349 345 336 338 336 336 339 337 326 333 326 331 323 314 332 331 322 311 328 331 331 319 306 307 312 329 326 329 322 299 51 70 101 68 62 47 35 29 38 57 48 29 56 9 157 156 186 186 189 191 196
250 250 258 271 290 286 283 286 277 301 333 348 335 334 328 330 335 332 331 332 321 313 317 320 315 300 312 305 301 308 345 345 341 339 335 319 320 325 332 354 338 19 44 84 60 69 70 58 68 73 56 42 36 42 30 38 5 178 151 145 182 167 176
246 244 247 238 249 258 249 247 314 353 335 333 326 324 321 327 329 325 322 324 329 314 312 315 308 303 305 298 290 313 304 323 343 339 332 321 302 310 323 312 322 35 24 62 79 85 87 77 68 66 64 58 48 48 45 32 36 39 46 136 152 156 157
246 244 244 249 271 287 296 298 295 299 329 314 310 309 317 317 318 319 314 315 323 319 309 308 301 300 297 291 277 277 349 326 315 311 322 322 329 323 331 242 29 31 36 37 75 71 67 70 78 67 57 52 50 39 47 80 83 67 45 47 52 57 47
263 270 285 287 278 271 282 289 299 298 298 299 295 293 295 299 301 307 307 308 310 314 307 286 283 264 257 261 285 319 266 175 130 145 95 2 20 41 33 42 51 73 42 40 49 60 58 57 59 57 58 58 53 50 40 55 88 120 126 124 111 88 54
264 270 275 282 287 284 278 276 280 285 285 282 284 286 288 290 292 292 296 300 299 290 292 274 243 234 262 267 234 196 171 151 117 95 113 90 67 58 72 72 75 79 81 72 69 68 73 72 70 66 64 54 47 47 40 42 38 60 92 102 115 118 122